TimeCDT,TemperatureF,Dew PointF,Humidity,Sea Level PressureIn,VisibilityMPH,Wind Direction,Wind SpeedMPH,Gust SpeedMPH,PrecipitationIn,Events,Conditions,WindDirDegrees,DateUTC
12:53 AM,48.9,43.0,80,29.96,10.0,Calm,Calm,-,N/A,,Scattered Clouds,0,2012-10-22 05:53:00
1:53 AM,48.9,44.1,83,29.95,10.0,Calm,Calm,-,N/A,,Clear,0,2012-10-22 06:53:00
2:53 AM,50.0,43.0,77,29.96,10.0,Calm,Calm,-,N/A,,Partly Cloudy,0,2012-10-22 07:53:00
3:53 AM,48.9,43.0,80,29.97,10.0,Calm,Calm,-,N/A,,Clear,0,2012-10-22 08:53:00
4:53 AM,48.0,42.1,80,29.97,10.0,NNE,4.6,-,N/A,,Clear,20,2012-10-22 09:53:00
5:53 AM,46.0,41.0,83,29.99,10.0,NNE,3.5,-,N/A,,Clear,30,2012-10-22 10:53:00
7:53 AM,45.0,41.0,86,30.02,10.0,NNE,3.5,-,N/A,,Mostly Cloudy,30,2012-10-22 12:53:00
9:53 AM,54.0,42.1,64,30.04,10.0,NE,9.2,-,N/A,,Clear,40,2012-10-22 14:53:00
10:53 AM,54.0,43.0,66,30.04,10.0,NNE,9.2,16.1,N/A,,Overcast,30,2012-10-22 15:53:00
11:53 AM,54.0,44.1,69,30.04,10.0,NNE,10.4,18.4,N/A,,Overcast,30,2012-10-22 16:53:00
12:53 PM,53.1,44.1,71,30.05,10.0,NNE,8.1,16.1,N/A,,Overcast,30,2012-10-22 17:53:00
1:53 PM,54.0,44.1,69,30.03,10.0,NE,8.1,-,N/A,,Overcast,40,2012-10-22 18:53:00
2:53 PM,53.1,44.1,71,30.00,10.0,NNE,8.1,-,N/A,,Overcast,20,2012-10-22 19:53:00
3:53 PM,55.0,45.0,69,30.00,10.0,NNE,6.9,-,N/A,,Mostly Cloudy,30,2012-10-22 20:53:00
4:53 PM,52.0,44.1,74,30.01,10.0,NNE,5.8,-,N/A,,Overcast,30,2012-10-22 21:53:00
5:53 PM,50.0,43.0,77,30.02,10.0,NNE,5.8,-,N/A,,Overcast,30,2012-10-22 22:53:00
6:53 PM,48.9,43.0,80,30.01,10.0,NE,5.8,-,N/A,,Overcast,40,2012-10-22 23:53:00
7:53 PM,48.0,43.0,83,30.00,10.0,NE,4.6,-,N/A,,Mostly Cloudy,40,2012-10-23 00:53:00
8:53 PM,48.0,44.1,86,30.01,10.0,NE,4.6,-,N/A,,Overcast,40,2012-10-23 01:53:00
9:53 PM,48.9,44.1,83,30.01,10.0,NE,3.5,-,N/A,,Overcast,40,2012-10-23 02:53:00
10:53 PM,50.0,44.1,80,30.00,10.0,ENE,6.9,-,N/A,,Overcast,60,2012-10-23 03:53:00
11:53 PM,51.1,44.1,77,29.98,10.0,ENE,9.2,-,N/A,,Overcast,60,2012-10-23 04:53:00